McGrath, AK

7:08 AM AKST on November 23, 2017 (GMT -0900)
McGrath

Weather History for PAMC - July, 2013

Change the Weather History Date:

Saturday, July 20, 2013

  Actual Average Record
Temperature  
Mean Temperature 58 °F 60 °F  
Max Temperature 64 °F 69 °F 88 °F (1962)
Min Temperature 51 °F 51 °F 35 °F (1965)
Degree Days  
Heating Degree Days 7 6  
Month to date heating degree days 149 101  
Since 1 June heating degree days 284 335  
Since 1 July heating degree days 149 101  
Cooling Degree Days 0 0  
Month to date cooling degree days 4 11  
Year to date cooling degree days 64 17  
Since 1 June cooling degree days 55 17  
Growing Degree Days 8 (Base 50)    
Moisture  
Dew Point 49 °F    
Average Humidity 0    
Maximum Humidity 0    
Minimum Humidity 0    
Precipitation  
Precipitation 0.05 in 0.08 in 0.36 in (2016)
Month to date precipitation 1.90 1.45  
Year to date precipitation 6.62 7.64  
Snow  
Snow 0.00 in 0.00 in 0.00 in ()
Month to date snowfall 0.0 0.0  
Since 1 June snowfall 0.0 0.0  
Since 1 July snowfall 0.0 0.0  
Snow Depth 0.00 in    
Sea Level Pressure  
Sea Level Pressure 30.25 in    
Wind  
Wind Speed 5 mph (West)    
Max Wind Speed 12 mph    
Max Gust Speed 15 mph    
Visibility 10 miles    
Events Rain    
T = Trace of Precipitation, MM = Missing Value Source: NWS Daily Summary

Daily Weather History Graph

Daily Weather History Graph

Search for Another Location

Airport or City:

Trip Planner

Search our weather history database for the weather conditions in past years. The results will help you decide how hot, cold, wet, or windy it might be!

Date:

Astronomy

Jul. 20, 2013 Rise Set
Actual Time 5:07 AM AKDT 11:47 PM AKDT
Civil Twilight 3:13 AM AKDT 1:35 AM AKDT
Nautical Twilight Sun does not rise Sun does not rise
Astronomical Twilight Sun does not rise Sun does not rise
Moon 9:49 PM AKDT (7/20) 3:05 AM AKDT (7/20)
Length of Visible Light 22h 22m
Length of Day
18h 39m
Waxing Gibbous, 94% of the Moon is Illuminated
Jul 20
Waxing Gibbous
Jul 22
Full
Jul 29
Last Quarter
Aug 6
New
Aug 14
First Quarter

Hourly Weather History & Observations

Time (AKDT) Temp. Dew Point Humidity Pressure Visibility Wind Dir Wind Speed Gust Speed Precip Events Conditions
12:04 AM 51.8 °F 50.0 °F 94% 30.23 in 10.0 mi WSW 3.5 mph - N/A   Overcast
12:53 AM 52.0 °F 50.0 °F 93% 30.25 in 10.0 mi WNW 3.5 mph - 0.01 in Rain Light Rain
1:53 AM 52.0 °F 50.0 °F 93% 30.25 in 10.0 mi Calm Calm - 0.01 in Rain Light Rain
2:53 AM 51.1 °F 48.9 °F 92% 30.24 in 10.0 mi WSW 3.5 mph - 0.00 in   Overcast
3:00 AM 51.8 °F 48.2 °F 88% 30.23 in 10.0 mi WSW 3.5 mph - N/A   Overcast
3:17 AM 51.8 °F 48.2 °F 88% 30.23 in 10.0 mi WSW 4.6 mph - N/A   Overcast
3:53 AM 52.0 °F 48.9 °F 89% 30.25 in 10.0 mi WSW 5.8 mph - N/A   Overcast
4:53 AM 51.1 °F 48.9 °F 92% 30.24 in 7.0 mi SW 5.8 mph - 0.03 in Rain Rain
5:53 AM 51.1 °F 48.9 °F 92% 30.25 in 10.0 mi SW 4.6 mph - 0.01 in   Overcast
6:53 AM 51.1 °F 48.9 °F 92% 30.25 in 10.0 mi Calm Calm - N/A   Overcast
7:53 AM 52.0 °F 48.9 °F 89% 30.26 in 10.0 mi WSW 4.6 mph - N/A   Overcast
8:53 AM 53.1 °F 48.9 °F 86% 30.27 in 10.0 mi WSW 5.8 mph - N/A   Overcast
9:53 AM 53.1 °F 48.0 °F 83% 30.27 in 10.0 mi WSW 5.8 mph - N/A   Overcast
10:49 AM 53.6 °F 50.0 °F 88% 30.26 in 10.0 mi SW 5.8 mph - N/A   Overcast
10:53 AM 54.0 °F 48.9 °F 83% 30.27 in 10.0 mi Calm Calm - N/A   Overcast
11:49 AM 55.4 °F 48.2 °F 77% 30.26 in 10.0 mi West 4.6 mph - 0.00 in   Overcast
11:53 AM 55.0 °F 48.9 °F 80% 30.27 in 10.0 mi WSW 5.8 mph - 0.00 in   Overcast
12:53 PM 57.9 °F 50.0 °F 75% 30.28 in 10.0 mi NW 5.8 mph - N/A   Overcast
1:53 PM 57.9 °F 48.9 °F 72% 30.27 in 10.0 mi West 4.6 mph - N/A   Mostly Cloudy
2:53 PM 61.0 °F 48.9 °F 64% 30.26 in 10.0 mi Variable 4.6 mph - N/A   Mostly Cloudy
3:53 PM 61.0 °F 48.0 °F 62% 30.25 in 10.0 mi WNW 5.8 mph - N/A   Mostly Cloudy
4:53 PM 61.0 °F 50.0 °F 67% 30.25 in 10.0 mi North 6.9 mph - N/A   Mostly Cloudy
5:53 PM 57.9 °F 51.1 °F 78% 30.25 in 10.0 mi SW 6.9 mph - N/A   Overcast
6:53 PM 62.1 °F 48.9 °F 62% 30.24 in 10.0 mi Calm Calm - N/A   Overcast
7:53 PM 60.1 °F 48.0 °F 64% 30.23 in 10.0 mi WNW 8.1 mph - N/A   Overcast
8:53 PM 59.0 °F 48.0 °F 67% 30.24 in 10.0 mi NW 6.9 mph - N/A   Overcast
9:53 PM 57.9 °F 46.9 °F 67% 30.23 in 10.0 mi WNW 5.8 mph - N/A   Overcast
10:53 PM 55.9 °F 46.9 °F 72% 30.23 in 10.0 mi Variable 4.6 mph - N/A   Overcast
11:53 PM 55.0 °F 46.9 °F 74% 30.24 in 10.0 mi WNW 5.8 mph - N/A   Overcast